BKP903 VTBS-VDSA

Flight info

Callsign BKP903
Flight time N/A
Altitude 33000
Route GOMES1E GOMES B204 AGEDO ALBEB1A
Aircraft A319/M-SDE3FGHIRWY/LB1

Departure

Time 2026-05-07 21:20
Airport Suvarnabhumi Airport (VTBS)

Arrival

Time N/A
Airport Siem Reap-Angkor International Airport (VDSA)
Time Latitude Longitude Altitude Speed Heading
2026-05-07 20:50 13.69593 100.75615 13 ft 0 kts 284°
2026-05-07 21:12 13.69590 100.75627 13 ft 4 kts 283°
2026-05-07 21:12 13.69584 100.75654 14 ft 4 kts 280°
2026-05-07 21:13 13.69580 100.75681 14 ft 4 kts 273°
2026-05-07 21:13 13.69581 100.75708 13 ft 4 kts 248°
2026-05-07 21:13 13.69593 100.75723 13 ft 1 kts 194°
2026-05-07 21:13 13.69597 100.75724 14 ft 0 kts 194°
2026-05-07 21:16 13.69596 100.75724 13 ft 1 kts 194°
2026-05-07 21:16 13.69587 100.75723 13 ft 2 kts 185°
2026-05-07 21:16 13.69568 100.75731 13 ft 4 kts 152°
2026-05-07 21:17 13.69548 100.75759 13 ft 6 kts 113°
2026-05-07 21:17 13.69532 100.75814 13 ft 9 kts 104°
2026-05-07 21:17 13.69514 100.75888 13 ft 12 kts 105°
2026-05-07 21:17 13.69481 100.75973 13 ft 14 kts 138°
2026-05-07 21:18 13.69381 100.75967 13 ft 16 kts 194°
2026-05-07 21:18 13.69265 100.75940 13 ft 18 kts 182°
2026-05-07 21:18 13.69199 100.75994 12 ft 0 kts 108°
2026-05-07 21:18 13.69196 100.76004 12 ft 3 kts 108°
2026-05-07 21:19 13.69185 100.76038 12 ft 8 kts 114°
2026-05-07 21:19 13.69124 100.76075 12 ft 14 kts 171°
2026-05-07 21:19 13.68993 100.76056 14 ft 33 kts 194°
2026-05-07 21:19 13.68568 100.75946 16 ft 92 kts 194°
2026-05-07 21:20 13.67763 100.75734 11 ft 146 kts 194°
2026-05-07 21:20 13.66665 100.75443 313 ft 165 kts 193°
2026-05-07 21:20 13.65528 100.75160 909 ft 173 kts 193°
2026-05-07 21:20 13.64328 100.75146 1533 ft 180 kts 159°
2026-05-07 21:21 13.63450 100.75978 2024 ft 190 kts 118°
2026-05-07 21:21 13.63190 100.77239 2554 ft 196 kts 94°
2026-05-07 21:21 13.63139 100.78597 3003 ft 199 kts 92°
2026-05-07 21:21 13.63100 100.79969 3009 ft 196 kts 92°
2026-05-07 21:22 13.63062 100.81296 3007 ft 195 kts 92°
2026-05-07 21:22 13.63033 100.82753 2999 ft 220 kts 91°
2026-05-07 21:22 13.63021 100.84391 3009 ft 258 kts 91°
2026-05-07 21:22 13.63015 100.86241 3009 ft 268 kts 91°
2026-05-07 21:23 13.63011 100.88098 3007 ft 269 kts 90°
2026-05-07 21:23 13.63002 100.89979 3005 ft 269 kts 91°
2026-05-07 21:23 13.62964 100.91834 3004 ft 270 kts 96°
2026-05-07 21:23 13.62558 100.93669 3254 ft 277 kts 105°
2026-05-07 21:24 13.62076 100.95506 4196 ft 274 kts 105°
2026-05-07 21:24 13.61584 100.97379 5161 ft 275 kts 105°
2026-05-07 21:24 13.61093 100.99255 6080 ft 277 kts 105°
2026-05-07 21:24 13.60599 101.01147 6944 ft 279 kts 105°
2026-05-07 21:25 13.60102 101.03059 7794 ft 282 kts 105°
2026-05-07 21:25 13.59620 101.04916 8608 ft 285 kts 105°
2026-05-07 21:25 13.59118 101.06835 9432 ft 288 kts 105°
2026-05-07 21:25 13.58616 101.08741 10164 ft 293 kts 105°
2026-05-07 21:26 13.58085 101.10765 10426 ft 315 kts 105°
2026-05-07 21:26 13.57530 101.12885 10740 ft 330 kts 105°
2026-05-07 21:26 13.56934 101.15163 11300 ft 337 kts 105°
2026-05-07 21:26 13.56344 101.17414 11950 ft 341 kts 105°
2026-05-07 21:27 13.55738 101.19720 12594 ft 345 kts 105°
2026-05-07 21:27 13.55128 101.22039 13214 ft 348 kts 105°
2026-05-07 21:27 13.54510 101.24391 13840 ft 352 kts 105°
2026-05-07 21:27 13.53887 101.26769 14396 ft 355 kts 105°
2026-05-07 21:28 13.53264 101.29146 14957 ft 358 kts 105°
2026-05-07 21:28 13.52632 101.31554 15514 ft 360 kts 105°
2026-05-07 21:28 13.52421 101.32355 15706 ft 361 kts 105°